{"data":{"norad_id":68008,"intl_designator":"2026-039Y","name":"STARLINK-36911","alt_names":[],"object_type":"PAYLOAD","status":"ACTIVE","operator":null,"country":"US","launch_date":"2026-02-27","launch_site_code":"AFETR","launch_vehicle":null,"mission":null,"orbit_class":"UNKNOWN","rcs_meters":null,"size_class":null,"mass_kg":null,"dimensions":null,"purposes":["comms"],"wikipedia_slug":null,"has_3d_model":false,"image_url":null,"decayed_at":null,"tle_current":{"epoch":"2026-05-24T22:22:53.126112Z","epoch_age_seconds":74772,"freshness":"FRESH","line1":"1 68008U 26039Y   26144.93255933  .00008440  00000+0  31590-3 0  9994","line2":"2 68008  43.0053 338.3558 0001624 264.0393  96.0273 15.27579056 13361","mean_motion":15.27579056,"eccentricity":0.0001624,"inclination_deg":43.0053,"raan_deg":338.3558,"arg_perigee_deg":264.0393,"mean_anomaly_deg":96.0273,"bstar":0.0003159,"rev_number":1336,"period_min":94.266806967796,"perigee_km":481.93766563566,"apogee_km":484.16617979776,"semimajor_km":6861.1889227167,"source":"CELESTRAK","updated_at":"2026-05-25T13:38:21.802062Z"}}}